Location: Huesca
(42.1318°N, 0.4078°W)
Time: 07:55:35
(UTC+02:00)

Explorer 7 - Pass Details

Date: 19 July 2024
Orbit: 445 x 571 km, 50.3° (Epoch: 18 June)

Event Time Altitude Azimuth Distance (km) Brightness Sun altitude
Rises 06:57:20 0° 298° (WNW) 2,842 10.1 1.6°
Reaches altitude 10° 06:59:51 10° 308° (NW) 1,922 9.4 2.0°
Maximum altitude 07:03:51 33° 13° (NNE) 980 8.7 2.6°
Drops below altitude 10° 07:07:41 10° 79° (ENE) 1,840 11.4 3.3°
Sets 07:10:02 0° 89° (E) 2,703 11.8 3.7°
